TimeEDT,TemperatureF,Dew PointF,Humidity,Sea Level PressureIn,VisibilityMPH,Wind Direction,Wind SpeedMPH,Gust SpeedMPH,PrecipitationIn,Events,Conditions,WindDirDegrees,DateUTC
12:29 AM,66.2,57.2,73,29.85,5.0,SW,12.7,-,0.01,,Haze,220,2013-10-16 04:29:00
12:40 AM,66.2,57.2,73,29.85,5.0,SSW,11.5,-,0.01,,Haze,210,2013-10-16 04:40:00
12:53 AM,64.9,57.9,78,29.83,5.0,SW,12.7,-,0.01,,Haze,220,2013-10-16 04:53:00
1:14 AM,64.4,57.2,77,29.85,5.0,SW,9.2,-,0.01,,Haze,220,2013-10-16 05:14:00
1:39 AM,64.4,57.2,77,29.85,5.0,SSW,8.1,-,0.01,,Haze,210,2013-10-16 05:39:00
1:48 AM,64.4,57.2,77,29.85,4.0,SW,6.9,-,0.02,,Haze,220,2013-10-16 05:48:00
1:53 AM,64.0,59.0,84,29.84,4.0,SW,6.9,-,0.02,,Haze,220,2013-10-16 05:53:00
2:05 AM,64.4,57.2,77,29.85,4.0,SW,8.1,-,N/A,,Haze,220,2013-10-16 06:05:00
2:35 AM,62.6,57.2,82,29.85,4.0,SSW,8.1,-,N/A,,Haze,210,2013-10-16 06:35:00
2:53 AM,63.0,57.9,84,29.84,4.0,SSW,6.9,-,0.01,,Haze,210,2013-10-16 06:53:00
3:53 AM,63.0,55.9,78,29.82,4.0,SSW,8.1,-,N/A,,Haze,200,2013-10-16 07:53:00
4:14 AM,62.6,55.4,77,29.83,4.0,SSW,6.9,-,0.01,,Haze,210,2013-10-16 08:14:00
4:23 AM,62.6,55.4,77,29.82,4.0,SSW,5.8,-,0.01,,Haze,210,2013-10-16 08:23:00
4:53 AM,63.0,57.0,81,29.82,4.0,SSW,8.1,-,0.01,,Haze,200,2013-10-16 08:53:00
5:04 AM,62.6,57.2,82,29.83,4.0,SW,6.9,-,N/A,,Haze,220,2013-10-16 09:04:00
5:53 AM,63.0,57.0,81,29.82,5.0,SW,9.2,-,0.01,,Haze,220,2013-10-16 09:53:00
6:42 AM,62.6,55.4,77,29.83,5.0,SSW,5.8,-,N/A,,Haze,210,2013-10-16 10:42:00
6:53 AM,62.1,55.9,80,29.82,4.0,SSW,6.9,-,N/A,,Haze,210,2013-10-16 10:53:00
7:13 AM,60.8,53.6,77,29.84,8.0,WSW,11.5,-,N/A,,Overcast,250,2013-10-16 11:13:00
7:53 AM,59.0,52.0,78,29.83,10.0,West,9.2,-,N/A,,Overcast,260,2013-10-16 11:53:00
8:50 AM,57.2,50.0,77,29.85,10.0,WSW,6.9,-,0.01,,Mostly Cloudy,240,2013-10-16 12:50:00
8:53 AM,57.9,50.0,75,29.84,10.0,WSW,8.1,-,0.01,,Mostly Cloudy,240,2013-10-16 12:53:00
9:31 AM,57.2,48.2,72,29.86,10.0,WSW,8.1,-,N/A,,Scattered Clouds,240,2013-10-16 13:31:00
9:53 AM,60.1,48.0,64,29.85,10.0,WSW,11.5,-,N/A,,Clear,250,2013-10-16 13:53:00
10:53 AM,62.1,46.9,58,29.85,10.0,West,11.5,-,N/A,,Partly Cloudy,260,2013-10-16 14:53:00
11:53 AM,63.0,44.1,50,29.85,10.0,West,15.0,-,N/A,,Clear,270,2013-10-16 15:53:00
12:53 PM,64.0,45.0,50,29.84,10.0,West,13.8,-,N/A,,Clear,270,2013-10-16 16:53:00
1:53 PM,64.0,43.0,46,29.83,10.0,WSW,19.6,24.2,N/A,,Clear,250,2013-10-16 17:53:00
2:53 PM,61.0,42.1,50,29.84,10.0,West,15.0,27.6,N/A,,Partly Cloudy,270,2013-10-16 18:53:00
3:53 PM,61.0,43.0,52,29.84,10.0,West,12.7,-,N/A,,Scattered Clouds,260,2013-10-16 19:53:00
4:53 PM,59.0,44.1,58,29.85,10.0,West,17.3,-,N/A,,Overcast,260,2013-10-16 20:53:00
5:53 PM,57.9,44.1,60,29.86,10.0,West,15.0,-,N/A,,Overcast,260,2013-10-16 21:53:00
6:53 PM,55.9,45.0,67,29.87,10.0,WSW,13.8,-,N/A,,Overcast,250,2013-10-16 22:53:00
7:53 PM,55.9,45.0,67,29.89,10.0,West,12.7,-,N/A,,Overcast,260,2013-10-16 23:53:00
8:53 PM,55.9,45.0,67,29.90,10.0,WSW,13.8,-,N/A,,Overcast,240,2013-10-17 00:53:00
9:53 PM,55.0,45.0,69,29.92,10.0,WSW,11.5,-,N/A,,Overcast,240,2013-10-17 01:53:00
10:53 PM,55.0,45.0,69,29.92,10.0,SW,10.4,-,N/A,,Overcast,230,2013-10-17 02:53:00
11:53 PM,55.0,45.0,69,29.91,10.0,WSW,9.2,-,N/A,,Overcast,240,2013-10-17 03:53:00